GLOBALSTAR M001 1 25162U 98008A 26035.26213257 -.00000064 00000+0 25208-3 0 9995 2 25162 52.0057 17.7406 0001668 33.7796 339.4149 12.38226722272467 GLOBALSTAR M004 1 25163U 98008B 26036.05278289 -.00000077 00000+0 14802-3 0 9992 2 25163 52.0006 63.7245 0003512 90.8079 293.1920 12.63414077291129 GLOBALSTAR M002 1 25164U 98008C 26035.69178313 -.00000081 00000+0 -83993-4 0 9993 2 25164 52.0041 17.2334 0001270 204.6314 155.4446 11.61515076211086 GLOBALSTAR M003 1 25165U 98008D 26036.02691150 -.00000205 00000+0 -12356-2 0 9992 2 25165 51.9857 243.6135 0008879 44.5933 112.4784 12.12030228261456 GLOBALSTAR M014 1 25306U 98023A 26036.16947851 -.00000051 00000+0 48866-3 0 9997 2 25306 51.9850 294.3646 0001812 65.0747 103.2548 11.65484236218331 GLOBALSTAR M006 1 25307U 98023B 26036.14138367 -.00000077 00000+0 -26223-4 0 9993 2 25307 51.9974 355.6130 0002879 165.9850 206.9238 11.58176424243825 GLOBALSTAR M015 1 25308U 98023C 26036.12669378 -.00000121 00000+0 -10855-2 0 9995 2 25308 51.9820 104.7982 0013315 130.9926 247.2983 11.48861754220856 GLOBALSTAR M008 1 25309U 98023D 26035.97822052 -.00000084 00000+0 98176-4 0 9999 2 25309 51.9946 243.1282 0002050 326.4402 185.9187 12.36080322266634 GLOBALSTAR M023 1 25621U 99004A 26036.10746653 -.00000050 00000+0 29702-3 0 9995 2 25621 52.0110 64.1859 0009364 281.4493 113.4504 12.62516673245157 GLOBALSTAR M040 1 25622U 99004B 26036.09259076 -.00000086 00000+0 10147-3 0 9994 2 25622 51.9921 68.7277 0001159 164.3588 225.8447 12.62028220244663 GLOBALSTAR M036 1 25623U 99004C 26036.11111748 -.00000045 00000+0 55614-3 0 9994 2 25623 52.0000 346.3714 0010693 135.2838 237.6415 11.86618484206636 GLOBALSTAR M038 1 25624U 99004D 26036.15239289 -.00000049 00000+0 38217-3 0 9994 2 25624 51.9971 120.6504 0002322 163.7735 205.2246 12.32540507231109 GLOBALSTAR M022 1 25649U 99012A 26035.67452865 -.00000097 00000+0 -12392-3 0 9993 2 25649 52.0065 18.8878 0002450 271.4545 259.4723 12.02509340204346 GLOBALSTAR M041 1 25650U 99012B 26036.09030867 -.00000075 00000+0 13298-3 0 9997 2 25650 52.0004 266.3138 0002231 69.7608 290.3468 11.96683564206160 GLOBALSTAR M046 1 25651U 99012C 26036.18018677 -.00000029 00000+0 65680-3 0 9994 2 25651 52.0081 319.1458 0002276 9.8774 138.4968 12.09417230211855 GLOBALSTAR M037 1 25652U 99012D 26036.20534637 -.00000085 00000+0 10229-3 0 9998 2 25652 51.9984 194.4187 0001791 15.5553 155.4675 12.62461103240706 GLOBALSTAR M045 1 25676U 99019A 26035.99047025 -.00000057 00000+0 32305-3 0 9994 2 25676 51.9995 1.7234 0000365 24.5829 49.0115 12.27072398221979 GLOBALSTAR M019 1 25677U 99019B 26035.62566234 .00000002 00000+0 96160-3 0 9991 2 25677 51.9863 149.4879 0002104 88.7908 284.0834 12.13879887213379 GLOBALSTAR M044 1 25678U 99019C 26035.82159539 -.00000121 00000+0 -51953-3 0 9995 2 25678 51.9965 129.4048 0006873 127.4249 32.1544 11.90263175199021 GLOBALSTAR M042 1 25679U 99019D 26036.15096409 -.00000105 00000+0 -11695-3 0 9990 2 25679 52.0012 113.2837 0003232 71.4551 302.1353 12.22095405213743 GLOBALSTAR M025 1 25770U 99031A 26036.14616381 -.00000070 00000+0 -87401-4 0 9992 2 25770 51.9853 339.6043 0001962 157.3291 215.5006 11.22561175507875 GLOBALSTAR M049 1 25771U 99031B 26036.05178673 -.00000018 00000+0 16425-2 0 9997 2 25771 51.9899 26.2845 0002885 54.8873 305.2194 11.12121823143330 GLOBALSTAR M047 1 25772U 99031C 26036.01607765 -.00000063 00000+0 18267-3 0 9990 2 25772 51.9868 1.0920 0016315 303.7968 56.1284 11.31931969497476 GLOBALSTAR M052 1 25773U 99031D 26036.20112867 -.00000086 00000+0 -67242-3 0 9999 2 25773 51.9859 131.3457 0003012 181.2597 192.3863 11.15063578504509 GLOBALSTAR M035 1 25851U 99037A 26036.09157852 -.00000015 00000+0 18297-2 0 9998 2 25851 51.9920 255.5669 0013899 4.5647 160.7502 11.04542038121994 GLOBALSTAR M032 1 25852U 99037B 26036.10823793 -.00000134 00000+0 -21511-2 0 9991 2 25852 51.9958 64.6541 0012802 198.6487 161.3845 11.19068012160861 GLOBALSTAR M051 1 25853U 99037C 26035.66343282 -.00000090 00000+0 -45036-3 0 9992 2 25853 51.9764 200.0704 0001152 97.0725 263.0216 11.42200053158955 GLOBALSTAR M030 1 25854U 99037D 26036.12087689 -.00000104 00000+0 -61797-3 0 9999 2 25854 51.9913 350.2581 0003766 92.8699 267.2549 11.55108321176964 GLOBALSTAR M048 1 25872U 99041A 26035.59542705 -.00000063 00000+0 20141-3 0 9990 2 25872 51.9358 144.2522 0013062 222.8939 236.9818 11.33861922151341 GLOBALSTAR M026 1 25873U 99041B 26035.35832734 -.00000171 00000+0 -39405-2 0 9992 2 25873 52.0047 12.7066 0001810 303.6652 207.4280 11.06840717174192 GLOBALSTAR M043 1 25874U 99041C 26036.11833068 -.00000041 00000+0 82112-3 0 9998 2 25874 51.9377 259.9388 0013591 353.0093 176.2571 11.25697726149106 GLOBALSTAR M028 1 25875U 99041D 26035.81105641 -.00000099 00000+0 88439-5 0 9997 2 25875 51.9599 219.4133 0062761 215.9468 143.7162 12.50595643219283 GLOBALSTAR M024 1 25883U 99043A 26035.75655851 -.00000017 00000+0 16906-2 0 9991 2 25883 51.9975 215.8624 0002666 106.2044 266.6215 11.10168820140695 GLOBALSTAR M027 1 25884U 99043B 26036.02239407 -.00000072 00000+0 -31287-3 0 9990 2 25884 52.0229 299.8456 0021794 8.7215 351.3953 11.04373570166966 GLOBALSTAR M054 1 25885U 99043C 26035.75736181 -.00000078 00000+0 -16998-3 0 9999 2 25885 52.0163 28.6980 0004737 216.6129 314.5452 11.39223531145552 GLOBALSTAR M053 1 25886U 99043D 26036.09942368 -.00000054 00000+0 41720-3 0 9998 2 25886 52.0020 347.8987 0003555 111.6689 261.6863 11.27669780145724 GLOBALSTAR M058 1 25907U 99049A 26035.77118502 -.00000093 00000+0 -11487-3 0 9998 2 25907 51.9912 208.1085 0002182 24.9481 335.1459 11.93208141569300 GLOBALSTAR M050 1 25908U 99049B 26036.18430101 -.00000032 00000+0 63561-3 0 9999 2 25908 51.9960 197.2727 0010015 132.2276 38.6829 12.07464557176338 GLOBALSTAR M033 1 25909U 99049C 26036.05425390 -.00000046 00000+0 43990-3 0 9999 2 25909 51.9919 53.3794 0014239 24.8781 335.2750 12.20302374564173 GLOBALSTAR M055 1 25910U 99049D 26036.01896968 -.00000083 00000+0 99818-4 0 9992 2 25910 52.0027 52.8860 0006786 253.7063 106.3042 12.29440296196929 GLOBALSTAR M057 1 25943U 99058A 26036.01754449 -.00000063 00000+0 26962-3 0 9992 2 25943 51.9994 47.4249 0002687 130.8973 229.2109 12.24832862195464 GLOBALSTAR M059 1 25944U 99058B 26036.08953047 -.00000014 00000+0 89680-3 0 9997 2 25944 52.0030 297.0926 0001099 65.8115 73.9632 11.99992724602007 GLOBALSTAR M056 1 25945U 99058C 26036.07400759 -.00000099 00000+0 -13785-3 0 9991 2 25945 51.9973 293.1258 0000651 337.7621 161.4166 12.04784259190694 GLOBALSTAR M031 1 25946U 99058D 26035.70692133 .00000001 00000+0 92391-3 0 9991 2 25946 51.9944 172.5232 0000359 308.1195 156.9485 12.16048641192830 GLOBALSTAR M039 1 25961U 99062A 26036.11178030 -.00000060 00000+0 24517-3 0 9995 2 25961 51.9844 279.2655 0002989 127.4528 232.6610 12.62341018209637 GLOBALSTAR M034 1 25962U 99062B 26036.16278860 -.00000060 00000+0 33964-3 0 9999 2 25962 51.9868 125.7806 0014994 122.1223 250.9991 11.79455527165881 GLOBALSTAR M029 1 25963U 99062C 26035.60140094 -.00000099 00000+0 -15515-3 0 9990 2 25963 51.9780 186.2458 0002375 186.1536 255.2611 11.99908053197024 GLOBALSTAR M061 1 25964U 99062D 26036.13203468 -.00000075 00000+0 82493-4 0 9998 2 25964 51.9816 312.9914 0006622 44.3907 95.0370 11.76777351148608 GLOBALSTAR M063 1 26081U 00008A 26035.82889709 -.00000093 00000+0 -15800-3 0 9992 2 26081 51.9920 218.8716 0005350 49.1284 55.0825 11.86180897185186 GLOBALSTAR M062 1 26082U 00008B 26035.59563346 -.00000216 00000+0 -84214-3 0 9995 2 26082 51.9848 132.3288 0006819 243.3481 222.7512 12.43479765525530 GLOBALSTAR M060 1 26083U 00008C 26035.54077229 .00000000 00000+0 90427-3 0 9993 2 26083 52.0020 125.3737 0003054 223.6218 238.9942 12.17674820180671 GLOBALSTAR M064 1 26084U 00008D 26036.09857523 -.00000033 00000+0 71979-3 0 9996 2 26084 52.0056 314.2469 0001662 121.0923 239.0072 11.88540417194794 GLOBALSTAR M065 1 31571U 07020A 26036.01712096 -.00000083 00000+0 11498-3 0 9996 2 31571 51.9868 237.5996 0010839 102.1066 62.3511 12.62020130862803 GLOBALSTAR M069 1 31573U 07020C 26036.02446167 -.00000058 00000+0 31892-3 0 9994 2 31573 52.0018 266.2010 0000901 214.3990 288.5073 12.23467960862629 GLOBALSTAR M072 1 31574U 07020D 26036.18717485 -.00000063 00000+0 29311-3 0 9995 2 31574 51.9930 91.6662 0001376 79.9870 313.8935 11.91655434859245 GLOBALSTAR M071 1 31576U 07020F 26036.16386566 -.00000055 00000+0 35671-3 0 9994 2 31576 52.0075 297.9919 0000374 141.0913 25.2529 12.18264892523336 GLOBALSTAR M067 1 32263U 07048A 26036.06943525 -.00000061 00000+0 26635-3 0 9998 2 32263 51.9728 74.4898 0001572 122.7033 257.8783 12.40684537838394 GLOBALSTAR M070 1 32264U 07048B 26035.59831465 -.00000102 00000+0 11635-4 0 9996 2 32264 51.9744 140.4763 0000583 109.4884 264.4654 12.62329772843023 GLOBALSTAR M066 1 32265U 07048C 26036.13716881 -.00000089 00000+0 42929-4 0 9996 2 32265 51.9599 76.9909 0005224 127.1207 249.1440 12.30384175843970 GLOBALSTAR M068 1 32266U 07048D 26036.18383737 -.00000085 00000+0 10490-3 0 9995 2 32266 51.9905 311.9968 0000765 332.4913 176.7399 12.62839309846991 GLOBALSTAR M079 1 37188U 10054A 26035.50688201 -.00000097 00000+0 37570-4 0 9995 2 37188 52.0028 152.5676 0001031 99.6783 340.3532 12.62270183705795 GLOBALSTAR M074 1 37189U 10054B 26035.70693344 -.00000092 00000+0 65822-4 0 9998 2 37189 52.0006 151.2461 0000968 117.4328 31.1490 12.62265712706423 GLOBALSTAR M076 1 37190U 10054C 26035.64483112 -.00000102 00000+0 74102-5 0 9997 2 37190 52.0020 151.6272 0001135 113.2597 352.6059 12.62269991706137 GLOBALSTAR M077 1 37191U 10054D 26035.63806256 -.00000062 00000+0 29003-3 0 9998 2 37191 51.9958 155.9274 0001491 111.6444 350.1085 11.68178385705652 GLOBALSTAR M075 1 37192U 10054E 26035.73628772 -.00000117 00000+0 -72011-4 0 9995 2 37192 51.9927 193.4757 0000924 95.3386 7.1704 12.62264051705215 GLOBALSTAR M073 1 37193U 10054F 26036.19582017 -.00000075 00000+0 16290-3 0 9996 2 37193 52.0060 106.0765 0000854 112.9689 277.2017 12.62269202707266 GLOBALSTAR M083 1 37739U 11033A 26036.05002481 -.00000107 00000+0 -20555-4 0 9994 2 37739 51.9867 54.9284 0000581 100.4850 288.6064 12.62266872676264 GLOBALSTAR M088 1 37740U 11033B 26035.95542699 -.00000080 00000+0 13310-3 0 9993 2 37740 52.0239 321.3253 0000566 64.8514 13.7531 12.62260941671791 GLOBALSTAR M091 1 37741U 11033C 26036.14475164 -.00000076 00000+0 15267-3 0 9996 2 37741 52.0000 283.9128 0000884 61.0529 97.4427 12.62269488672609 GLOBALSTAR M085 1 37742U 11033D 26036.05417022 -.00000107 00000+0 -20564-4 0 9999 2 37742 52.0099 235.3629 0001105 72.7378 94.4228 12.62269052673102 GLOBALSTAR M081 1 37743U 11033E 26035.74444390 -.00000098 00000+0 34454-4 0 9994 2 37743 51.9934 238.8915 0001114 83.6225 356.0698 12.62262210673216 GLOBALSTAR M089 1 37744U 11033F 26035.69021751 -.00000116 00000+0 -68627-4 0 9992 2 37744 51.9910 193.2397 0001018 114.4012 258.5784 12.62264099674051 GLOBALSTAR M084 1 38040U 11080A 26036.10423568 -.00000095 00000+0 46635-4 0 9993 2 38040 52.0014 59.3901 0000594 140.7836 254.0558 12.62267635652083 GLOBALSTAR M080 1 38041U 11080B 26036.07484243 -.00000084 00000+0 11087-3 0 9997 2 38041 52.0064 61.1524 0000298 37.6670 353.1345 12.62266057652208 GLOBALSTAR M082 1 38042U 11080C 26035.72520797 -.00000104 00000+0 -20282-5 0 9997 2 38042 52.0096 17.7032 0000440 34.5562 136.5149 12.62267158652860 GLOBALSTAR M092 1 38043U 11080D 26036.13965911 -.00000078 00000+0 14200-3 0 9995 2 38043 52.0081 106.8315 0000653 117.8513 257.5535 12.62269923651376 GLOBALSTAR M090 1 38044U 11080E 26035.67257909 -.00000108 00000+0 -24776-4 0 9990 2 38044 52.0146 11.7774 0000515 70.0210 100.4911 12.62266364652970 GLOBALSTAR M086 1 38045U 11080F 26035.29311593 -.00000095 00000+0 47527-4 0 9992 2 38045 51.9919 13.0783 0001450 106.3560 31.9598 12.62282350652873 GLOBALSTAR M097 1 39072U 13005A 26036.16246236 -.00000082 00000+0 12262-3 0 9993 2 39072 52.0049 285.2323 0000959 72.4103 287.6869 12.62268606600234 GLOBALSTAR M093 1 39073U 13005B 26036.13623756 -.00000078 00000+0 14482-3 0 9998 2 39073 52.0103 278.6098 0001215 68.4878 291.6119 12.62272610600188 GLOBALSTAR M094 1 39074U 13005C 26035.74036836 -.00000117 00000+0 -75701-4 0 9999 2 39074 51.9936 194.0611 0001199 89.2100 270.8904 12.62266809601740 GLOBALSTAR M096 1 39075U 13005D 26035.99097226 -.00000102 00000+0 10067-4 0 9994 2 39075 52.0049 241.9956 0001139 74.2898 285.8094 12.62263019600693 GLOBALSTAR M078 1 39076U 13005E 26036.04384715 -.00000027 00000+0 42909-3 0 9999 2 39076 51.9897 326.0280 0001037 9.7743 350.3144 12.62276701599320 GLOBALSTAR M095 1 39077U 13005F 26036.14955538 -.00000078 00000+0 14620-3 0 9993 2 39077 52.0104 323.1235 0000960 43.3024 316.7918 12.62268192599197 GLOBALSTAR M087 1 52888U 22064A 26036.16278215 -.00000081 00000+0 12533-3 0 9990 2 52888 51.9998 104.3961 0000699 97.3885 262.7061 12.62266638174460